Mission

  • Our mission is to promote and protect San Carlos Airport and its flight operations, and to enhance the safety and spirit of general aviation through participation in local community activities.

Live View of San Carlos Airport (SQL)

San Carlos METAR

  • KSQL 181450Z 15003KT 10SM BKN028 OVC050 11/09 A3013

    A METAR describes the current weather at an airport. Click here to learn how to read a METAR.


SQL Notams

  • Click here and enter KSQL in the Locations box to read the Notices to Airmen (Notams) about San Carlos Airport.

ASOS from Half Moon Bay Airport (HAF)

Chapter

Contact

  • Email: webmaster at sancarlosairport.org
  • Our mailing address:
    San Carlos Airport Association
    P.O. Box 1183
    San Carlos, CA 94070
 

Fri. Aug. 30: FAA flight check of VASIs


The FAA is scheduled to flight check the VASIs on Friday Aug. 10th. We can expect multiple passes at various altitudes, perhaps by their Learjet, at unexpected times.